STARLINK-4742, 53795

Orbit data source: Space-Track

STARLINK-4742, 53795 is a payload satellite owned by SpaceX/Seattle (US) in LEO that was launched on Sun, 11 Sep 2022 UTC via an FALCON 9 launch vehicle from the Air Force Eastern Test Range (AFETR). Payload-class satellites include a variety of spacecraft equipped with specific instruments for various scientific and technological missions. These include communications satellites like Starlink; space stations such as the ISS; scientific satellites like the Hubble; Earth observation satellites from companies like Planet Labs, Umbra, and HawkEye 360; GPS; miniature CubeSats for education and research; and military/defense satellites.

Loading next visibility...
Identifier
53795, 2022-111Y
Orbit
LEO
Country
Flag of USUS
Related business
Manufacturer
SpaceX/Seattle
Mission
Operational Commercial Communications
Bus & Motor
STARLINK, Unknown motor
Mass
305 kg wet, ~290 kg dry
Launch date (UTC)
2022-09-11 (4 years ago)
Launch vehicle
FALCON 9
Launch site
Air Force Eastern Test Range (AFETR)
Object type
Payload
Rocket body
Debris
Shape & HBR
Box + 1 Pan, 10.1 m
Radar Cross Section
13.562 m², Large (>1 m²)

Expand to show TLE details & history
Last TLE update: 12 hours ago

TLE from 12 hours ago
0 STARLINK-4742
1 53795U 22111Y   26127.92818579  .00003523  00000-0  23920-3 0  9995
2 53795  53.2174   7.8701 0001713  90.5218 269.5970 15.08863885202636
Epoch: 2026-05-07T22:16Z
TLE epoch observation values (Epoch: 2026-05-07T22:16:35.252Z)
Latitude
-0.00005°
Longitude
167.95589°
Altitude
540.576 km
Speed
7.593 km/s
True Right ascension
00h 31m 28s
True Declination
0° 00' 00"
Sunlit
Object was in daylight at epoch
Visualization orbit readout
Latitude
Unknown
Longitude
Unknown
Altitude
Unknown
Speed
Unknown
Apparent Right ascension
Unknown
Apparent Declination
Unknown
Sunlit
N/A
Visualization observer readout
Local Sidereal Time
18:29:03
Azimuth
Unknown
Elevation
Unknown
Doppler factor
Unknown
Orbital elements
Apogee altitude
541.1 km
Perigee altitude
538.73 km
Semi-major axis
6,918.052 km
Eccentricity
0.00017
Inclination
53.2174°
RAAN
7.8701°
Arg. of periapsis
90.5218°
True anomaly
269.57737°
Mean anomaly
269.597°
Eccentric anomaly
269.58719°
Mean motion
3.77196 °/min
Orbital period
95.44 mins
BSTAR
0.0002392
Loading maneuver chart data...
Computing Atmospheric mass density...
Loading historical data...
Loading historical data...
Loading historical data...
Loading historical data...
Loading historical data...
Loading historical data...
Loading historical data...

Documentation

Showing up to 5 results
|